Other Surface Observations
Issued by NWS

Current Version | Previous Version | Text Only | Print | Product List | Glossary On
Versions: 1 2 3 4 5 6 7 8 9 10 11 12 13 14 15 16 17 18 19 20 21 22 23 24 25 26 27 28 29 30 31 32 33 34 35 36 37 38 39 40 41 42 43 44 45 46 47 48 49 50
658
SXUS52 KTAE 272105
OSOTAE
OSOTAE
North Florida/South Alabama/Southwest Georgia Weather Roundup
National Weather Service Tallahassee Florida
500 PM EDT WED JUL 27 2016

Note: "fair" indicates few or no clouds below 12,000 feet with no
significant weather and/or obstructions to visibility.

!FLZ017-115-028-034-025-272200
...North Florida...

CITY           SKY/WX    TMP DP  RH WIND       PRES   REMARKS
TALLAHASSEE    PTSUNNY   88  73  61 NE8       30.03F HX  95
APALACHICOLA   SUNNY     90  78  68 SW10      30.05F HX 104
PERRY          SUNNY     93  70  48 SW6       30.05S HX  99
CROSS CITY       N/A     96  68  39 W10       30.03F HX 101
JACKSONVILLE   PTSUNNY   94  70  45 NE12      30.01F HX 100
$$

!FLZ112-006-005-002-011-272200
...Florida Panhandle...

CITY           SKY/WX    TMP DP  RH WIND       PRES   REMARKS
MARIANNA       SUNNY     94  68  42 W13       30.01F HX  98
BONIFAY        NOT AVBL
PANAMA CITY NW FAIR      89  75  63 S13       30.03F HX  99
TYNDALL AFB    MOSUNNY   89  76  65 SW12      30.04F HX 100
TYND DRONE APT NOT AVBL
DE FUNIAK SPR  FAIR      89  71  54 SW9       30.04F HX  95
EGLIN AFB      MOSUNNY   90  75  61 S13       30.03F HX 100
DESTIN         MOSUNNY   92  78  63 VRB6      30.03F HX 107
HURLBURT       MOSUNNY   90  73  57 SW13      30.02F HX  98
CRESTVIEW      MOSUNNY   91  72  53 S13G22    30.04F HX  98
PENSACOLA      PTSUNNY   90  76  63 S16       30.02F HX 101
$$

!ALZ063-066-272200
...South Alabama...

CITY           SKY/WX    TMP DP  RH WIND       PRES   REMARKS
DOTHAN         PTSUNNY   89  72  56 SW12      30.06F HX  96
OZARK CAIRNS   MOSUNNY   91  76  61 S6        30.02F HX 101
FT RUCKER HELI PTSUNNY   91  74  57 S9        30.01F HX 100
RUCKER HELI 3  FAIR      90  71  53 SW9       30.04F HX  96
RUCKER HELI 2  FAIR      89  72  56 VRB5      30.01F HX  96
FLORALA APT    MOSUNNY   90  71  53 SW8G21    30.04F HX  96
ANDALUSIA      PTSUNNY   93  73  52 SW10      30.01F HX 102
TROY           PTSUNNY   89  73  59 S7        30.02F HX  97
EUFALA         FAIR      92  72  51 S7        30.01F HX  99
MOBILE         MOSUNNY   87  73  62 SW13      30.03F HX  94
$$

!GAZ120>161-272200
...Southwest and South Central Georgia...

CITY           SKY/WX    TMP DP  RH WIND       PRES   REMARKS
THOMASVILLE      N/A     95  72  46 SW7       30.04  HX 103
BAINBRIDGE     SUNNY     97  70  41 SW6       30.02F HX 103
MOODY AFB      SUNNY     95  68  41 SW12G17   30.03F HX  99
VALDOSTA       SUNNY     94  70  45 VRB3      30.03F HX 100
MOULTRIE       SUNNY     93  68  43 SW8       30.04F HX  97
BLAKELY        PTSUNNY   93  70  46 SW12      30.03F HX  99
ALBANY         MOSUNNY   94  69  44 W12       30.04F HX  99
TIFTON         FAIR      92  69  47 SW7       30.03F HX  97
FITZGERALD     FAIR      99  73  42 SW10G17   30.04F HX 108
CORDELE        FAIR      96  70  41 W10       30.03F HX 102
AMERICUS       FAIR      91  61  35 W7G16     30.03F HX  91
HOMERVILLE     FAIR      95  70  43 W10       30.03F HX 101
$$

!GMZ750-755-770-775-272200
...Coastal and Buoy Obs...

STATION/POSITION TIME  TEMP    WIND        PRES    VSBY  WAVE
                       AIR SEA DIR/SP/G                  HT/PER
                 (UTC) (F)     (DEG/KT/KT) (MB)    (MI)  (FT/S)
KEATON BEACH     2100   87     260/  7/  8 1017.2F
CEDAR KEY        2000   90     270/  7/  9 1017.8F
C TOWER          2100   85     180/  6/  6 1018.1F
APALACHICOLA BUO 2050   87 88  120/  8/  8 1017.3          2/ 7
PANAMA CITY BUOY 1950   86 87  170/  6/  6 1018.1          3/ 7
MOBILE BUOY      2000   86 87  190/ 12/ 14 1017.0F
ORANGE BCH AL BU 2050   86 87  200/ 14/ 16 1016.9F         3/ 5
$$




USA.gov is the U.S. government's official web portal to all federal, state and local government web resources and services.